📊 Raw Sensor Data
Showing records 39501 to 39525 of 84,947 total
| ID | Distance (ft) | Battery V | Battery A | Int Temp (°F) | Int Humid (%) | Ext Temp (°F) | Solar V | RSSI | SNR | Time Stamp |
|---|---|---|---|---|---|---|---|---|---|---|
| 45459 | 15.5 | 3.89 | 9 | 93 | 53 | 86 | 4.60 | -73 | 7 | 07/05/2025 07:30 PM |
| 45458 | 15.5 | 3.91 | 0 | 95 | 52 | 87 | 4.50 | -72 | 8 | 07/05/2025 07:15 PM |
| 45457 | 15.5 | 3.83 | 0 | 97 | 52 | 89 | 5.10 | -72 | 8 | 07/05/2025 07:00 PM |
| 45456 | 15.5 | 3.82 | 0 | 99 | 51 | 91 | 5.10 | -73 | 8 | 07/05/2025 06:45 PM |
| 45455 | 15.5 | 4.06 | 0 | 100 | 50 | 91 | 5.10 | -72 | 8 | 07/05/2025 06:30 PM |
| 45454 | 15.5 | 3.82 | 0 | 101 | 49 | 93 | 5.10 | -70 | 8 | 07/05/2025 06:15 PM |
| 45453 | 15.5 | 4.08 | 0 | 101 | 49 | 93 | 5.10 | -71 | 8 | 07/05/2025 06:00 PM |
| 45452 | 15.5 | 4.06 | 0 | 102 | 49 | 93 | 5.10 | -72 | 7 | 07/05/2025 05:45 PM |
| 45451 | 15.4 | 3.97 | 0 | 103 | 47 | 94 | 5.10 | -72 | 8 | 07/05/2025 05:15 PM |
| 45450 | 15.5 | 3.81 | 0 | 104 | 46 | 95 | 5.10 | -72 | 8 | 07/05/2025 05:00 PM |
| 45449 | 15.5 | 3.81 | 0 | 104 | 46 | 95 | 5.10 | -72 | 7 | 07/05/2025 04:45 PM |
| 45448 | 15.5 | 3.81 | 0 | 104 | 45 | 95 | 5.10 | -73 | 7 | 07/05/2025 04:30 PM |
| 45447 | 15.5 | 4.05 | 0 | 104 | 44 | 95 | 5.10 | -72 | 8 | 07/05/2025 04:15 PM |
| 45446 | 15.5 | 3.92 | 0 | 103 | 43 | 94 | 5.10 | -68 | 8 | 07/05/2025 04:00 PM |
| 45445 | 15.5 | 3.91 | 0 | 103 | 43 | 95 | 5.10 | -67 | 8 | 07/05/2025 03:45 PM |
| 45444 | 15.5 | 3.84 | 0 | 102 | 42 | 95 | 5.20 | -67 | 8 | 07/05/2025 03:30 PM |
| 45443 | 15.4 | 3.81 | 0 | 101 | 41 | 94 | 5.10 | -69 | 8 | 07/05/2025 03:15 PM |
| 45442 | 15.4 | 3.81 | 0 | 99 | 41 | 91 | 5.10 | -66 | 8 | 07/05/2025 03:00 PM |
| 45441 | 15.4 | 3.81 | 0 | 98 | 41 | 88 | 5.10 | -68 | 7 | 07/05/2025 02:45 PM |
| 45440 | 15.4 | 3.81 | 0 | 96 | 41 | 87 | 5.10 | -66 | 8 | 07/05/2025 02:30 PM |
| 45439 | 15.4 | 3.81 | 0 | 95 | 40 | 88 | 5.10 | -68 | 8 | 07/05/2025 02:15 PM |
| 45438 | 15.4 | 3.81 | 0 | 93 | 41 | 87 | 5.10 | -66 | 8 | 07/05/2025 02:00 PM |
| 45437 | 15.3 | 4.06 | 0 | 92 | 40 | 83 | 5.10 | -66 | 8 | 07/05/2025 01:45 PM |
| 45436 | 15.3 | 3.81 | 0 | 89 | 41 | 83 | 5.10 | -67 | 8 | 07/05/2025 01:30 PM |
| 45435 | 15.4 | 3.81 | 0 | 87 | 42 | 82 | 5.10 | -66 | 8 | 07/05/2025 01:15 PM |